Location: Krakow
(50.0830°N, 19.9170°E)
Time: 04:56:21
(UTC+02:00)

Tiros 1 - Pass Details

Date: 12 February 2023
Orbit: 627 x 662 km, 48.4° (Epoch: 25 March)

Event Time Altitude Azimuth Distance (km) Brightness Sun altitude
Rises 00:17:17 0° 273° (W) 2,911 - -53.5°
Reaches altitude 10° 00:19:36 10° 271° (W) 2,004 - -53.4°
Maximum altitude 00:24:11 68° 188° (S) 678 - -53.3°
Drops below altitude 10° 00:28:47 10° 106° (ESE) 2,015 - -53.1°
Sets 00:31:08 0° 104° (ESE) 2,928 - -53.0°
